Home > Time Zones > World Clock > Weather > Sweden > Lund > Past weeks

Flag for Sweden Weather past 2 weeks in Lund, Sweden

Now
39 °F

Fog.


Feels Like: 35 °F
Forecast: 38 / 48 °F
Wind: 6 mph from Southwest

Location: Malmo / Sturup

Current Time: Dec 17, 2014 at 10:54:20 PM

Latest Report: Dec 17, 2014 at 10:20 PM


Visibility: 5 mi

Pressure: 29.56 "Hg

Humidity: 93%

Dew point: 37 °F

Location of LundLocation

Historic Weather in Lund — Graph

°F

Lund temperature yesterday

Maximum temperature yesterday: 41 °F (at 9:50 AM)
Minimum temperature yesterday: 36 °F (at 8:50 PM)
Average temperature yesterday: 39 °F

Past Weeks' High & Low Weather Summary

 TemperatureHumidityPressure
High46 °F (Dec 12, 6:20 PM)100% (Dec 5, 2:20 PM)30.27 "Hg (Dec 5, 2:20 PM)
Low34 °F (Dec 2, 9:20 PM)75% (Dec 13, 2:20 AM)28.97 "Hg (Dec 12, 5:20 PM)
Average39 °F90%29.80 "Hg
* Reported Dec 2 9:20 PM — Dec 17 9:20 PM, Lund, Weather by CustomWeather, © 2014

Note: Actual official high and low records may vary slightly from our data, if they occured in-between our weather recording intervals... More about our weather records

Advertising

Lund weather history for previous 24 hours

 ConditionsComfort  
Time TempWeatherWind HumidityBarometerVisibility
9:20 PM
Dec 17
37 °FDrizzle. Fog.7 mph100%29.56 "Hg1 mi
8:50 PM39 °FFog.8 mph93%29.56 "Hg2 mi
8:20 PM37 °FDrizzle. Fog.9 mph100%29.56 "Hg4 mi
7:50 PM39 °FLight rain. Fog.9 mph93%29.56 "Hg2 mi
7:20 PM39 °FLight rain. Fog.8 mph93%29.56 "Hg3 mi
6:50 PM39 °FLight rain. Fog.6 mph93%29.53 "Hg3 mi
6:20 PM39 °FFog.3 mph93%29.53 "Hg6 mi
5:50 PM37 °FFog.3 mph93%29.53 "Hg6 mi
5:20 PM39 °FPassing clouds.3 mph87%29.53 "HgN/A
4:50 PM39 °FOvercast.5 mph87%29.56 "HgN/A
4:20 PM39 °FFog.6 mph87%29.56 "Hg5 mi
3:50 PM39 °FFog.8 mph87%29.56 "Hg6 mi
3:20 PM39 °FFog.10 mph87%29.53 "Hg5 mi
2:50 PM39 °FFog.13 mph93%29.53 "Hg5 mi
2:20 PM39 °FFog.13 mph93%29.53 "Hg4 mi
1:50 PM39 °FFog.14 mph93%29.53 "Hg5 mi
1:20 PM39 °FBroken clouds.14 mph93%29.53 "HgN/A
12:50 PM39 °FPartly sunny.13 mph93%29.56 "HgN/A
12:20 PM39 °FScattered clouds.15 mph87%29.56 "HgN/A
11:50 AM39 °FScattered clouds.14 mph87%29.56 "HgN/A
11:20 AM39 °FPassing clouds.16 mph87%29.56 "HgN/A
10:50 AM41 °FPartly sunny.15 mph81%29.59 "HgN/A
10:20 AM39 °FPassing clouds.14 mph87%29.59 "HgN/A
9:50 AM39 °FPartly sunny.14 mph87%29.59 "HgN/A
9:20 AM39 °FSunny.16 mph87%29.59 "Hg10 mi
8:50 AM39 °FScattered clouds.17 mph87%29.56 "HgN/A
8:20 AM39 °FPassing clouds.16 mph87%29.56 "HgN/A
7:50 AM39 °FPassing clouds.18 mph87%29.56 "HgN/A
7:20 AM39 °FPartly cloudy.17 mph87%29.56 "HgN/A
6:50 AM41 °FPartly cloudy.17 mph87%29.56 "HgN/A
6:20 AM41 °FPassing clouds.18 mph87%29.56 "HgN/A
5:50 AM39 °FMostly cloudy.18 mph93%29.56 "HgN/A
5:20 AM39 °FPassing clouds.17 mph93%29.56 "HgN/A
4:50 AM41 °FPassing clouds.17 mph87%29.56 "HgN/A
4:20 AM39 °FPassing clouds.18 mph93%29.56 "HgN/A
3:50 AM39 °FMostly cloudy.18 mph93%29.56 "HgN/A
3:20 AM39 °FPartly cloudy.15 mph93%29.56 "HgN/A
2:50 AM39 °FMostly cloudy.20 mph93%29.56 "HgN/A
2:20 AM39 °FPassing clouds.17 mph87%29.56 "HgN/A
1:50 AM39 °FPartly cloudy.16 mph87%29.56 "HgN/A
1:20 AM39 °FPartly cloudy.18 mph87%29.56 "HgN/A
12:50 AM39 °FPassing clouds.16 mph87%29.56 "HgN/A
12:20 AM39 °FMostly cloudy.16 mph87%29.56 "HgN/A
11:50 PM
Dec 16
37 °FPassing clouds.18 mph93%29.56 "HgN/A
11:20 PM39 °FPassing clouds.15 mph87%29.56 "HgN/A
10:50 PM37 °FPassing clouds.15 mph87%29.56 "HgN/A
10:20 PM37 °FPassing clouds.17 mph93%29.56 "HgN/A
Weather by CustomWeather, © 2014

See weather overviewHow to use our weather pages